This demonstration page uses our WeatherBlox Daily Observations layout. Learn more.

Left ArrowRight Arrow

40.97296, -117.73568

Hourly Observations for August 16, 2022

Temp ( °F °C ) Dew Point ( °F °C ) Humidity (%) Winds ( mph kmh ) Pressure ( in mb ) Visibility ( mi km ) Precip ( " mm )
12:56 am 00:56 Clear 74 23.3 31 -0.6 20 20 ENE 10 17 29.83 1010 10 16 0.00 0.00
1:56 am 01:56 Clear 77 25 31 -0.6 18 18 ENE 8 13 29.82 1010 10 16 0.00 0.00
2:56 am 02:56 Clear 64 17.8 34 1.1 32 32 E 8 13 29.85 1011 10 16 0.00 0.00
3:56 am 03:56 Clear 72 22.2 32 0 23 23 NNE 6 9 29.85 1011 10 16 0.00 0.00
4:56 am 04:56 Clear 56 13.3 36 2.2 47 47 SSW 3 6 29.88 1012 10 16 0.00 0.00
5:56 am 05:56 Clear 56 13.3 36 2.2 47 47 S 3 6 29.89 1012 10 16 0.00 0.00
6:56 am 06:56 Sunny 59 15 37 2.8 44 44 SE 5 7 29.91 1013 10 16 0.00 0.00
7:56 am 07:56 Sunny 72 22.2 36 2.2 27 27 Calm 29.91 1013 10 16 0.00 0.00
8:56 am 08:56 Sunny 79 26.1 38 3.3 23 23 E 7 11 29.92 1013 10 16 0.00 0.00
9:56 am 09:56 Sunny 85 29.4 36 2.2 17 17 NE 5 7 29.91 1013 10 16 0.00 0.00
10:56 am 10:56 Sunny 91 32.8 37 2.8 15 15 ENE 7 11 29.89 1012 10 16 0.00 0.00
11:56 am 11:56 Sunny 93 33.9 36 2.2 14 14 VRB 5 7 29.88 1012 10 16 0.00 0.00
12:56 pm 12:56 Sunny 96 35.6 37 2.8 13 13 ESE 7 11 29.85 1011 10 16 0.00 0.00
1:56 pm 13:56 Sunny 98 36.7 36 2.2 12 12 E 6 9 29.83 1010 10 16 0.00 0.00
2:12 pm 14:12 Hazy 94 34.4 37 2.8 14 14 ESE 36 57 29.61 1003 2 3 0.00 0.00
2:26 pm 14:26 Mostly Cloudy with Light Rain 94 34.4 35 1.7 13 13 NNE 8 13 29.61 1003 7 11 0.01 0.13
2:56 pm 14:56 Sunny 96 35.6 32 0 11 11 Calm 29.84 1011 10 16 0.01 0.13
3:56 pm 15:56 Sunny 96 35.6 34 1.1 11 11 S 7 11 29.82 1010 10 16 0.00 0.00
4:56 pm 16:56 Sunny 94 34.4 36 2.2 13 13 S 12 19 29.84 1011 10 16 0.00 0.00
5:56 pm 17:56 Sunny 94 34.4 36 2.2 13 13 Calm 29.84 1011 10 16 0.00 0.00
6:56 pm 18:56 Sunny 89 31.7 42 5.6 19 19 Calm 29.85 1011 10 16 0.00 0.00
7:56 pm 19:56 Clear 87 30.6 38 3.3 18 18 NNW 7 11 29.84 1011 10 16 0.00 0.00
8:56 pm 20:56 Clear 84 28.9 37 2.8 19 19 W 7 11 29.85 1011 10 16 0.00 0.00
9:56 pm 21:56 Clear 75 23.9 38 3.3 26 26 ESE 7 11 29.86 1011 10 16 0.00 0.00
11:56 pm 23:56 Clear 64 17.8 40 4.4 41 41 SE 7 11 29.88 1012 10 16 0.00 0.00

Powered by AerisWeather